• In Deutschland
  • Länderverzeichnis
  • Für 7 Tage
  • Wassertemperatur
  • Satellitenkarten
  • Wetterkarte
  • Widgets
  • user-avatar
    Anmelden

    Stündliche Wetter Bad Salzuflen

    Heute, 19 Oktober, Donnerstag

    Zeit Temperatur Niederschläge Wind Luftdruck Luftfeuchtigkeit
    00:00 +12°C° 0 mm 2 m/S 750 mmHg 88%
    01:00 +12°C° 0 mm 1 m/S 750 mmHg 89%
    02:00 +12°C° 0 mm 1 m/S 750 mmHg 89%
    03:00 +12°C° 0 mm 1 m/S 750 mmHg 90%
    04:00 +12°C° 0 mm 1 m/S 750 mmHg 91%
    05:00 +12°C° 0 mm 1 m/S 750 mmHg 91%
    06:00 +12°C° 0 mm 1 m/S 750 mmHg 91%
    07:00 +11°C° 0 mm 1 m/S 750 mmHg 91%
    08:00 +13°C° 0 mm 1 m/S 750 mmHg 86%
    09:00 +15°C° 0 mm 2 m/S 750 mmHg 80%
    10:00 +17°C° 0 mm 2 m/S 750 mmHg 75%
    11:00 +18°C° 0 mm 2 m/S 750 mmHg 70%
    12:00 +19°C° 0 mm 3 m/S 750 mmHg 66%
    13:00 +20°C° 0 mm 3 m/S 749 mmHg 61%
    14:00 +20°C° 0 mm 3 m/S 749 mmHg 64%
    15:00 +20°C° 0 mm 2 m/S 749 mmHg 67%
    16:00 +19°C° 0 mm 2 m/S 749 mmHg 69%
    17:00 +18°C° 0 mm 2 m/S 749 mmHg 74%
    18:00 +16°C° 0 mm 2 m/S 749 mmHg 78%
    19:00 +15°C° 0 mm 2 m/S 749 mmHg 83%
    20:00 +14°C° 0 mm 3 m/S 749 mmHg 83%
    21:00 +14°C° 0 mm 3 m/S 749 mmHg 83%
    22:00 +13°C° 0 mm 3 m/S 749 mmHg 82%
    23:00 +14°C° 0 mm 3 m/S 749 mmHg 81%

    Morgen, 20 Oktober, Freitag

    Zeit Temperatur Niederschläge Wind Luftdruck Luftfeuchtigkeit
    00:00 +14°C° 0 mm 3 m/S 749 mmHg 80%
    01:00 +14°C° 0 mm 3 m/S 749 mmHg 79%
    02:00 +14°C° 0 mm 3 m/S 749 mmHg 78%
    03:00 +13°C° 0 mm 3 m/S 749 mmHg 77%
    04:00 +13°C° 0 mm 3 m/S 749 mmHg 75%
    05:00 +14°C° 0 mm 3 m/S 749 mmHg 73%
    06:00 +14°C° 0 mm 3 m/S 749 mmHg 70%
    07:00 +14°C° 0 mm 3 m/S 749 mmHg 67%
    08:00 +14°C° 0,5 mm 4 m/S 749 mmHg 72%
    09:00 +14°C° 0,5 mm 4 m/S 749 mmHg 76%
    10:00 +14°C° 0,5 mm 4 m/S 750 mmHg 80%
    11:00 +14°C° 0,6 mm 5 m/S 750 mmHg 82%
    12:00 +15°C° 0,6 mm 5 m/S 750 mmHg 83%
    13:00 +15°C° 0,6 mm 5 m/S 750 mmHg 85%
    14:00 +15°C° 0,3 mm 4 m/S 750 mmHg 82%
    15:00 +15°C° 0,3 mm 4 m/S 750 mmHg 80%
    16:00 +16°C° 0,3 mm 3 m/S 750 mmHg 78%
    17:00 +14°C° 0 mm 3 m/S 750 mmHg 80%
    18:00 +13°C° 0 mm 3 m/S 751 mmHg 82%
    19:00 +11°C° 0 mm 3 m/S 751 mmHg 84%
    20:00 +11°C° 0 mm 3 m/S 752 mmHg 85%
    21:00 +10°C° 0 mm 2 m/S 752 mmHg 87%
    22:00 +10°C° 0 mm 2 m/S 752 mmHg 88%
    23:00 +9°C° 0 mm 2 m/S 752 mmHg 89%

    übermorgen, 21 Oktober, Samstag

    Zeit Temperatur Niederschläge Wind Luftdruck Luftfeuchtigkeit
    00:00 +9°C° 0 mm 2 m/S 752 mmHg 89%
    01:00 +9°C° 0 mm 2 m/S 752 mmHg 90%
    02:00 +9°C° 0 mm 2 m/S 752 mmHg 89%
    03:00 +10°C° 0 mm 2 m/S 751 mmHg 87%
    04:00 +10°C° 0 mm 2 m/S 751 mmHg 85%
    05:00 +10°C° 0 mm 3 m/S 751 mmHg 86%
    06:00 +10°C° 0 mm 3 m/S 750 mmHg 87%
    07:00 +9°C° 0 mm 3 m/S 750 mmHg 88%
    08:00 +11°C° 0,2 mm 3 m/S 750 mmHg 88%
    09:00 +12°C° 0,2 mm 4 m/S 750 mmHg 88%
    10:00 +13°C° 0,2 mm 4 m/S 750 mmHg 87%
    11:00 +13°C° 0,3 mm 4 m/S 749 mmHg 88%
    12:00 +14°C° 0,3 mm 4 m/S 749 mmHg 89%
    13:00 +14°C° 0,3 mm 4 m/S 749 mmHg 89%
    14:00 +14°C° 0 mm 4 m/S 749 mmHg 88%
    15:00 +15°C° 0 mm 4 m/S 749 mmHg 86%
    16:00 +15°C° 0 mm 4 m/S 749 mmHg 85%
    17:00 +14°C° 0,1 mm 4 m/S 749 mmHg 87%
    18:00 +13°C° 0,1 mm 4 m/S 749 mmHg 89%
    19:00 +12°C° 0,1 mm 3 m/S 749 mmHg 91%
    20:00 +12°C° 0,1 mm 4 m/S 750 mmHg 89%
    21:00 +11°C° 0,1 mm 4 m/S 750 mmHg 87%
    22:00 +11°C° 0,1 mm 4 m/S 750 mmHg 85%
    23:00 +10°C° 0 mm 5 m/S 750 mmHg 85%

    22 Oktober, Sonntag

    Zeit Temperatur Niederschläge Wind Luftdruck Luftfeuchtigkeit
    00:00 +9°C° 0 mm 5 m/S 750 mmHg 85%
    01:00 +9°C° 0 mm 5 m/S 750 mmHg 84%
    02:00 +9°C° 0 mm 5 m/S 750 mmHg 84%
    03:00 +8°C° 0 mm 5 m/S 750 mmHg 84%
    04:00 +8°C° 0 mm 5 m/S 750 mmHg 84%
    05:00 +8°C° 0 mm 5 m/S 750 mmHg 84%
    06:00 +7°C° 0 mm 5 m/S 750 mmHg 84%
    07:00 +7°C° 0 mm 5 m/S 750 mmHg 84%
    08:00 +8°C° 0 mm 5 m/S 750 mmHg 80%
    09:00 +9°C° 0 mm 6 m/S 750 mmHg 77%
    10:00 +10°C° 0 mm 6 m/S 750 mmHg 73%
    11:00 +10°C° 0 mm 6 m/S 750 mmHg 72%
    12:00 +10°C° 0 mm 6 m/S 750 mmHg 70%
    13:00 +10°C° 0 mm 6 m/S 750 mmHg 69%
    14:00 +10°C° 0 mm 6 m/S 750 mmHg 71%
    15:00 +10°C° 0 mm 5 m/S 750 mmHg 72%
    16:00 +10°C° 0 mm 5 m/S 750 mmHg 73%
    17:00 +9°C° 0,2 mm 5 m/S 750 mmHg 77%
    18:00 +9°C° 0,2 mm 5 m/S 750 mmHg 80%
    19:00 +8°C° 0,2 mm 5 m/S 750 mmHg 84%
    20:00 +8°C° 0,4 mm 5 m/S 751 mmHg 85%
    21:00 +8°C° 0,4 mm 5 m/S 751 mmHg 87%
    22:00 +8°C° 0,4 mm 5 m/S 751 mmHg 88%
    23:00 +8°C° 0 mm 5 m/S 751 mmHg 89%

    23 Oktober, Montag

    Zeit Temperatur Niederschläge Wind Luftdruck Luftfeuchtigkeit
    00:00 +8°C° 0 mm 5 m/S 752 mmHg 90%
    01:00 +8°C° 0 mm 5 m/S 752 mmHg 91%
    02:00 +8°C° 0 mm 5 m/S 752 mmHg 91%
    03:00 +7°C° 0 mm 5 m/S 752 mmHg 92%
    04:00 +7°C° 0 mm 5 m/S 753 mmHg 92%
    05:00 +7°C° 0,1 mm 5 m/S 753 mmHg 93%
    06:00 +8°C° 0,1 mm 5 m/S 754 mmHg 93%
    07:00 +8°C° 0,1 mm 5 m/S 754 mmHg 93%
    08:00 +8°C° 0,3 mm 5 m/S 755 mmHg 91%
    09:00 +9°C° 0,3 mm 5 m/S 755 mmHg 89%
    10:00 +10°C° 0,3 mm 5 m/S 755 mmHg 88%
    11:00 +10°C° 0,1 mm 5 m/S 756 mmHg 85%
    12:00 +12°C° 0,1 mm 5 m/S 756 mmHg 81%
    13:00 +12°C° 0,1 mm 5 m/S 756 mmHg 78%
    14:00 +12°C° 0,1 mm 4 m/S 756 mmHg 80%
    15:00 +12°C° 0,1 mm 4 m/S 756 mmHg 82%
    16:00 +12°C° 0,1 mm 4 m/S 757 mmHg 84%
    17:00 +11°C° 0,2 mm 3 m/S 757 mmHg 87%
    18:00 +11°C° 0,2 mm 3 m/S 757 mmHg 90%
    19:00 +10°C° 0,2 mm 3 m/S 757 mmHg 93%
    20:00 +10°C° 0,1 mm 2 m/S 757 mmHg 93%
    21:00 +10°C° 0,1 mm 2 m/S 757 mmHg 93%
    22:00 +10°C° 0,1 mm 2 m/S 758 mmHg 93%
    23:00 +12°C° 0,1 mm 2 m/S 758 mmHg 94%

    24 Oktober, Dienstag

    Zeit Temperatur Niederschläge Wind Luftdruck Luftfeuchtigkeit
    00:00 +12°C° 0,1 mm 2 m/S 758 mmHg 95%
    01:00 +12°C° 0,1 mm 2 m/S 758 mmHg 96%
    02:00 +12°C° 0,1 mm 2 m/S 758 mmHg 96%
    03:00 +12°C° 0,1 mm 2 m/S 758 mmHg 96%
    04:00 +12°C° 0,1 mm 2 m/S 758 mmHg 97%
    05:00 +13°C° 0,1 mm 2 m/S 758 mmHg 97%
    06:00 +13°C° 0,1 mm 2 m/S 758 mmHg 97%
    07:00 +13°C° 0,1 mm 2 m/S 758 mmHg 97%
    08:00 +13°C° 0,1 mm 2 m/S 759 mmHg 96%
    09:00 +13°C° 0,1 mm 2 m/S 759 mmHg 95%
    10:00 +14°C° 0,1 mm 2 m/S 759 mmHg 94%
    11:00 +14°C° 0 mm 2 m/S 759 mmHg 92%
    12:00 +15°C° 0 mm 2 m/S 759 mmHg 91%
    13:00 +14°C° 0 mm 3 m/S 759 mmHg 90%
    14:00 +16°C° 0 mm 2 m/S 759 mmHg 90%
    15:00 +16°C° 0 mm 2 m/S 759 mmHg 90%
    16:00 +16°C° 0 mm 2 m/S 759 mmHg 90%
    17:00 +15°C° 0 mm 2 m/S 760 mmHg 92%
    18:00 +15°C° 0 mm 2 m/S 760 mmHg 93%
    19:00 +14°C° 0 mm 2 m/S 760 mmHg 95%
    20:00 +14°C° 0 mm 2 m/S 760 mmHg 95%
    21:00 +14°C° 0 mm 2 m/S 760 mmHg 95%
    22:00 +13°C° 0 mm 2 m/S 761 mmHg 95%
    23:00 +13°C° 0 mm 2 m/S 761 mmHg 95%
    Mehr zeigen